Weather History for Galeao, Brazil

Change the Weather History Date:

Sunday, September 8, 2013

  Actual Average Record
Temperature  
Mean Temperature 73 °F -  
Max Temperature 84 °F 79 °F 96 °F (1999)
Min Temperature 62 °F 65 °F 59 °F (2006)
Cooling Degree Days 8    
Growing Degree Days 23 (Base 50)    
Moisture  
Dew Point 61 °F    
Average Humidity 67    
Maximum Humidity 88    
Minimum Humidity 27    
Precipitation  
Precipitation 0.00 in - - ()
Sea Level Pressure  
Sea Level Pressure 30.14 in    
Wind  
Wind Speed 4 mph ()    
Max Wind Speed 13 mph    
Max Gust Speed -    
Visibility 9.3 miles    
Events      
Averages and records for this station are not official NWS values.
T = Trace of Precipitation, MM = Missing Value Source: Averaged Metar Reports

Daily Weather History Graph

Daily Weather History Graph

Search for Another Location

Airport:

Trip Planner

Search our weather history database for the weather conditions in past years. The results will help you decide how hot, cold, wet, or windy it might be!

Date:

Astronomy

Sep. 08, 2013 Rise Set
Actual Time 5:56 AM BRT 5:45 PM BRT
Civil Twilight 5:33 AM BRT 6:07 PM BRT
Nautical Twilight 5:07 AM BRT 6:33 PM BRT
Astronomical Twilight 4:41 AM BRT 6:59 PM BRT
Moon 7:44 AM BRT (9/8) 8:46 PM BRT (9/8)
Length of Visible Light 12h 33m
Length of Day
11h 48m
Waxing Crescent, 11% of the Moon is Illuminated
Sep 8
Waxing Crescent
Sep 12
First Quarter
Sep 19
Full
Sep 27
Last Quarter
Oct 4
New

Hourly Weather History & Observations

Time (BRT) Temp. Heat Index Dew Point Humidity Pressure Visibility Wind Dir Wind Speed Gust Speed Precip Events Conditions
12:00 AM 66.2 °F - 60.8 °F 83% 30.18 in - East 4.6 mph - N/A   Clear
1:00 AM 66.2 °F - 60.8 °F 83% 30.18 in - ESE 4.6 mph - N/A   Clear
2:00 AM 64.4 °F - 60.8 °F 88% 30.18 in - Calm Calm - N/A   Clear
3:00 AM 64 °F - 60 °F 84% 30.18 in 12 mi Calm Calm - -  
3:00 AM 64.4 °F - 60.8 °F 88% 30.18 in - Calm Calm - N/A   Clear
4:00 AM 62.6 °F - 59.0 °F 88% 30.12 in - Calm Calm - N/A   Clear
5:00 AM 62.6 °F - 59.0 °F 88% 30.15 in - Calm Calm - N/A   Clear
6:00 AM 64 °F - 61 °F 85% 30.17 in 12 mi Calm Calm - -   Scattered Clouds
6:00 AM 64.4 °F - 60.8 °F 88% 30.15 in 6.2 mi Calm Calm - N/A   Partly Cloudy
7:00 AM 64.4 °F - 60.8 °F 88% 30.15 in - Calm Calm - N/A   Clear
8:00 AM 71.6 °F - 64.4 °F 78% 30.18 in - Calm Calm - N/A   Clear
9:00 AM 71 °F - 64 °F 71% 30.24 in 12 mi WNW 2.3 mph - -  
9:00 AM 71.6 °F - 64.4 °F 78% 30.21 in - WNW 2.3 mph - N/A   Clear
10:00 AM 75.2 °F - 66.2 °F 73% 30.18 in - NNW 5.8 mph - N/A   Clear
11:00 AM 78.8 °F - 59.0 °F 51% 30.18 in - NW 4.6 mph - N/A   Clear
12:00 PM 81 °F - 57 °F 33% 30.17 in 12 mi NE 5.8 mph - -  
12:00 PM 80.6 °F 80.8 °F 57.2 °F 45% 30.15 in - NE 5.8 mph - N/A   Clear
1:00 PM 82.4 °F 82.0 °F 57.2 °F 42% 30.12 in - East 9.2 mph - N/A   Clear
2:00 PM 84.2 °F 82.8 °F 53.6 °F 35% 30.09 in 6.2 mi SE 11.5 mph - N/A   Partly Cloudy
3:00 PM 84 °F - 55 °F 27% 30.09 in 12 mi ESE 12.7 mph - -   Scattered Clouds
3:00 PM 84.2 °F 83.0 °F 55.4 °F 37% 30.09 in 6.2 mi ESE 12.7 mph - N/A   Partly Cloudy
4:00 PM 82.4 °F 81.4 °F 53.6 °F 37% 30.09 in 6.2 mi ESE 11.5 mph - N/A   Partly Cloudy
5:00 PM 78.8 °F - 60.8 °F 54% 30.06 in 6.2 mi ESE 11.5 mph - N/A   Partly Cloudy
6:00 PM 77 °F - 63 °F 52% 30.09 in 12 mi SE 9.2 mph - -   Scattered Clouds
6:00 PM 77.0 °F - 62.6 °F 61% 30.06 in 6.2 mi SE 9.2 mph - N/A   Partly Cloudy
7:00 PM 75.2 °F - 62.6 °F 65% 30.09 in - East 9.2 mph - N/A   Clear
8:00 PM 73.4 °F - 62.6 °F 69% 30.09 in - East 5.8 mph - N/A   Clear
9:00 PM 72 °F - 63 °F 66% 30.13 in 12 mi ESE 3.5 mph - -  
9:00 PM 73.4 °F - 62.6 °F 69% 30.12 in - ESE 3.5 mph - N/A   Clear
10:00 PM 71.6 °F - 64.4 °F 78% 30.12 in - ESE 3.5 mph - N/A   Clear
11:00 PM 69.8 °F - 64.4 °F 83% 30.12 in - SE 2.3 mph - N/A   Clear